Weather History for Fort Benning, GA

Change the Weather History Date:

Tuesday, April 16, 2013

  Actual Average Record
Temperature  
Mean Temperature 72 °F -  
Max Temperature 86 °F 74 °F 86 °F (2002)
Min Temperature 57 °F 48 °F 32 °F (2008)
Cooling Degree Days 6    
Growing Degree Days 22 (Base 50)    
Moisture  
Dew Point 63 °F    
Average Humidity 81    
Maximum Humidity 100    
Minimum Humidity 51    
Precipitation  
Precipitation 0.00 in - - ()
Sea Level Pressure  
Sea Level Pressure 30.15 in    
Wind  
Wind Speed 4 mph (East)    
Max Wind Speed 10 mph    
Max Gust Speed -    
Visibility 9 miles    
Events      
Averages and records for this station are not official NWS values.
T = Trace of Precipitation, MM = Missing Value Source: NWS Daily Summary

Daily Weather History Graph

Daily Weather History Graph

Search for Another Location

Airport:

Trip Planner

Search our weather history database for the weather conditions in past years. The results will help you decide how hot, cold, wet, or windy it might be!

Date:

Astronomy

Apr. 16, 2013 Rise Set
Actual Time 7:09 AM EDT 8:10 PM EDT
Civil Twilight 6:44 AM EDT 8:35 PM EDT
Nautical Twilight 6:14 AM EDT 9:05 PM EDT
Astronomical Twilight 5:43 AM EDT 9:36 PM EDT
Moon 11:35 AM EDT (4/16) 12:58 AM EDT (4/16)
Length of Visible Light 13h 51m
Length of Day
13h 01m
Waxing Crescent, 33% of the Moon is Illuminated
Apr 16
Waxing Crescent
Apr 18
First Quarter
Apr 25
Full
May 2
Last Quarter
May 9
New

Hourly Weather History & Observations

Time (EDT) Temp. Heat Index Dew Point Humidity Pressure Visibility Wind Dir Wind Speed Gust Speed Precip Events Conditions
12:38 AM 66.2 °F - 62.6 °F 88% 30.11 in 7.0 mi ESE 1.2 mph - N/A   Mostly Cloudy
12:55 AM 68.0 °F - 62.6 °F 83% 30.12 in 10.0 mi SE 8.1 mph - N/A   Mostly Cloudy
1:46 AM 60.8 °F - 60.8 °F 100% 30.12 in 10.0 mi Calm Calm - N/A   Mostly Cloudy
1:55 AM 60.8 °F - 60.8 °F 100% 30.13 in 10.0 mi Calm Calm - N/A   Mostly Cloudy
2:56 AM 59.0 °F - 59.0 °F 100% 30.12 in 10.0 mi NNW 2.3 mph - N/A   Scattered Clouds
3:59 AM 59.0 °F - 59.0 °F 100% 30.12 in 10.0 mi North 2.3 mph - N/A   Clear
4:09 AM 57.2 °F - 57.2 °F 100% 30.10 in 5.0 mi Variable 1.2 mph - N/A   Clear
4:35 AM 59.0 °F - 59.0 °F 100% 30.12 in 6.0 mi WNW 2.3 mph - N/A   Clear
4:56 AM 59.0 °F - 59.0 °F 100% 30.13 in 10.0 mi North 3.5 mph - N/A   Mostly Cloudy
5:40 AM 59.0 °F - 59.0 °F 100% 30.12 in 4.0 mi NW 2.3 mph - N/A   Partly Cloudy
5:58 AM 59.0 °F - 57.2 °F 94% 30.13 in 10.0 mi East 2.3 mph - N/A   Partly Cloudy
6:03 AM 59.0 °F - 59.0 °F 100% 30.13 in 10.0 mi North 2.3 mph - N/A   Scattered Clouds
6:58 AM 59.0 °F - 59.0 °F 100% 30.14 in 10.0 mi NE 3.5 mph - N/A   Overcast
7:58 AM 62.6 °F - 62.6 °F 100% 30.17 in 10.0 mi ENE 5.8 mph - N/A   Overcast
8:04 AM 62.6 °F - 62.6 °F 100% 30.16 in 10.0 mi East 5.8 mph - N/A   Overcast
8:58 AM 68.0 °F - 62.6 °F 83% 30.19 in 10.0 mi ENE 3.5 mph - N/A   Mostly Cloudy
9:06 AM 68.0 °F - 64.4 °F 88% 30.18 in 10.0 mi ENE 4.6 mph - N/A   Mostly Cloudy
9:26 AM 69.8 °F - 62.6 °F 78% 30.18 in 10.0 mi ENE 4.6 mph - N/A   Partly Cloudy
9:59 AM 71.6 °F - 62.6 °F 73% 30.19 in 10.0 mi ESE 10.4 mph - N/A   Partly Cloudy
10:58 AM 74.8 °F - 64.2 °F 69% 30.20 in 10.0 mi East 8.1 mph - N/A   Clear
11:58 AM 78.1 °F - 64.8 °F 63% 30.20 in 10.0 mi East 8.1 mph - N/A   Scattered Clouds
12:58 PM 80.2 °F 82.0 °F 64.8 °F 59% 30.18 in 10.0 mi ESE 8.1 mph - N/A   Partly Cloudy
1:58 PM 82.9 °F 84.6 °F 64.9 °F 54% 30.18 in 10.0 mi East 8.1 mph - N/A   Clear
2:58 PM 84.4 °F 86.1 °F 65.1 °F 52% 30.16 in 10.0 mi SE 10.4 mph - N/A   Clear
3:58 PM 83.8 °F 85.6 °F 64.9 °F 53% 30.14 in 10.0 mi ESE 4.6 mph - N/A   Mostly Cloudy
4:58 PM 84.6 °F 86.1 °F 64.8 °F 51% 30.13 in 10.0 mi ESE 5.8 mph - N/A   Scattered Clouds
5:38 PM 86.0 °F 88.2 °F 66.2 °F 51% 30.12 in 10.0 mi East 5.8 mph - N/A   Mostly Cloudy
5:58 PM 85.3 °F 87.4 °F 65.7 °F 52% 30.14 in 10.0 mi ESE 6.9 mph - N/A   Overcast
6:18 PM 82.4 °F 84.6 °F 66.2 °F 58% 30.13 in 10.0 mi ESE 8.1 mph - N/A   Overcast
6:48 PM 84.2 °F 86.6 °F 66.2 °F 55% 30.13 in 10.0 mi ESE 6.9 mph - N/A   Scattered Clouds
6:58 PM 83.3 °F 85.7 °F 66.7 °F 57% 30.14 in 10.0 mi SSE 6.9 mph - N/A   Partly Cloudy
7:58 PM 75.2 °F - 66.0 °F 73% 30.14 in 10.0 mi SE 5.8 mph - N/A   Clear
8:58 PM 70.2 °F - 66.6 °F 88% 30.14 in 10.0 mi South 3.5 mph - N/A   Clear
9:58 PM 67.5 °F - 65.5 °F 93% 30.16 in 10.0 mi South 2.3 mph - N/A   Clear
10:30 PM 66.2 °F - 66.2 °F 100% 30.16 in 10.0 mi Calm Calm - N/A   Clear
10:33 PM 66.2 °F - 66.2 °F 100% 30.16 in 10.0 mi Calm Calm - N/A   Clear
10:55 PM 69.8 °F - 66.2 °F 88% 30.16 in 7.0 mi Calm Calm - N/A   Clear
11:55 PM 68.0 °F - 66.2 °F 94% 30.16 in 6.0 mi SSW 2.3 mph - N/A   Partly Cloudy